User: anonymous   Login
Location: Hains Lake
(37.8540°N, 99.8578°W)
Time: 13:30:12
(UTC+00:00)
Language:

Okean O Rocket - Orbit

View from above orbital plane
View from above orbital plane
View from above satellite
View from above satellite

Ground track
Ground track

The orbit data is extracted from the following two-line orbital elements,

1 25861U 99039B   20052.60984257  .00000012  00000-0  92337-5 0  9994
2 25861  98.2053  52.4763 0015878 168.4487 330.3675 14.78564589110494
Epoch (UTC): 21 February 2020 14:38:10
Eccentricity: 0.0015878
inclination: 98.2053°
perigee height: 623 km
apogee height: 645 km
right ascension of ascending node: 52.4763°
argument of perigee: 168.4487°
revolutions per day: 14.78564589
mean anomaly at epoch: 330.3675°
orbit number at epoch: 11049

The dashed part of the orbit path shows where the satellite is in the earth's shadow,  

DLR